Location: ?????oe
(44.4874°N, 135.7046°E)
Time: 22:19:17
(UTC+00:00)

Cosmos 1812 Rocket - Pass Details

Date: 13 December 2025
Orbit: 600 x 624 km, 82.5° (Epoch: 21 January)

Event Time Altitude Azimuth Distance (km) Brightness Sun altitude
Exits shadow 21:40:03 - 341° (NNW) 2,829 6.5 -8.0°
Reaches altitude 10° 21:42:21 10° 331° (NNW) 1,961 5.6 -7.6°
Maximum altitude 21:46:09 30° 270° (W) 1,087 4.4 -7.0°
Drops below altitude 10° 21:49:57 10° 209° (SSW) 1,959 6.1 -6.4°
Sets 21:52:21 0° 198° (SSW) 2,862 7.1 -6.0°
